GW0658 Weather Reports


Display with metric or nautical units.
time (UTC)temp
F
wind
direction
speed
MPH
gust
MPH
rain 1hr
in
rain 24hr
in
rain mn
in
humidity
%
barometer
mb
20260904144023 52 0 0.0 3.0 0.00 0.00 0.00 95 1015.1
20260904143526 52 198 1.0 3.0 0.00 0.00 0.00 95 1015.1
20260904143047 52 0 0.0 3.0 0.00 0.00 0.00 95 1015.2
20260904142524 52 0 0.0 3.0 0.00 0.00 0.00 95 1015.0
20260904142023 52 0 0.0 3.0 0.00 0.00 0.00 95 1015.0
20260904141543 52 0 0.0 3.0 0.00 0.00 0.00 95 1015.0
20260904141022 52 198 1.0 3.0 0.00 0.00 0.00 95 1015.1
20260904140521 52 0 0.0 3.0 0.00 0.00 0.00 94 1014.9
20260904140053 52 198 1.0 3.0 0.00 0.00 0.00 95 1014.7
20260904135524 52 198 0.0 3.0 0.00 0.00 0.00 94 1014.7
20260904135024 52 159 0.0 3.0 0.00 0.00 0.00 94 1014.6
20260904134542 52 196 1.0 3.0 0.00 0.00 0.00 94 1014.7
20260904134024 52 190 0.0 3.0 0.00 0.00 0.00 94 1014.6
20260904133522 52 203 0.0 3.0 0.00 0.00 0.00 94 1014.6
20260904133045 52 0 0.0 2.0 0.00 0.00 0.00 94 1014.6
20260904132522 52 0 0.0 2.0 0.00 0.00 0.00 93 1014.6
20260904132021 52 0 0.0 2.0 0.00 0.00 0.00 94 1014.7
20260904131540 53 0 0.0 3.0 0.00 0.00 0.00 93 1014.5
20260904131028 53 0 0.0 3.0 0.00 0.00 0.00 93 1014.5
20260904130521 53 0 0.0 2.0 0.00 0.00 0.00 93 1014.5
20260904130041 53 158 0.0 2.0 0.00 0.00 0.00 93 1014.4
20260904125527 53 0 0.0 2.0 0.00 0.00 0.00 93 1014.4
20260904125024 53 276 0.0 2.0 0.00 0.00 0.00 93 1014.3
20260904124556 53 0 0.0 2.0 0.00 0.00 0.00 92 1014.3
20260904124023 53 302 0.0 2.0 0.00 0.00 0.00 93 1014.2
20260904123522 53 344 0.0 5.0 0.00 0.00 0.00 92 1014.2
20260904123043 53 0 1.0 5.0 0.00 0.00 0.00 92 1014.2
20260904122521 53 0 0.0 2.0 0.00 0.00 0.00 92 1014.2
20260904122021 53 0 0.0 2.0 0.00 0.00 0.00 92 1014.2
20260904121540 53 177 0.0 2.0 0.00 0.00 0.00 92 1014.2
20260904121024 53 0 0.0 2.0 0.00 0.00 0.00 91 1014.3
20260904120524 53 0 0.0 2.0 0.00 0.00 0.00 91 1014.2
20260904120046 53 177 0.0 2.0 0.00 0.00 0.00 91 1014.2
20260904115524 53 0 0.0 1.0 0.00 0.00 0.00 91 1014.1
20260904115028 53 0 0.0 2.0 0.00 0.00 0.00 91 1014.1
20260904114547 53 0 0.0 3.0 0.00 0.00 0.00 90 1014.1
20260904114022 53 0 0.0 3.0 0.00 0.00 0.00 91 1014.1
20260904113521 53 204 1.0 3.0 0.00 0.00 0.00 90 1014.1
20260904113048 53 0 0.0 2.0 0.00 0.00 0.00 90 1014.1
20260904112521 53 123 0.0 2.0 0.00 0.00 0.00 90 1013.9
20260904112025 53 0 0.0 2.0 0.00 0.00 0.00 90 1014.0
20260904111542 53 0 0.0 0.0 0.00 0.00 0.00 90 1013.9
20260904111019 53 0 0.0 0.0 0.00 0.00 0.00 90 1014.0
20260904110525 53 0 0.0 0.0 0.00 0.00 0.00 90 1013.9
20260904110135 53 0 0.0 0.0 0.00 0.00 0.00 90 1013.9
20260904105523 53 0 0.0 0.0 0.00 0.00 0.00 90 1013.9
20260904105022 53 0 0.0 0.0 0.00 0.00 0.00 90 1013.9
20260904104547 53 0 0.0 0.0 0.00 0.00 0.00 90 1013.9
20260904104021 53 0 0.0 0.0 0.00 0.00 0.00 90 1014.0
20260904103524 53 0 0.0 0.0 0.00 0.00 0.00 91 1014.0
20260904103043 53 0 0.0 0.0 0.00 0.00 0.00 91 1014.0
20260904102519 53 0 0.0 0.0 0.00 0.00 0.00 91 1014.0
20260904102019 53 0 0.0 0.0 0.00 0.00 0.00 91 1013.9
20260904101540 53 0 0.0 0.0 0.00 0.00 0.00 91 1014.0
20260904101023 53 0 0.0 0.0 0.00 0.00 0.00 91 1013.9
20260904100528 53 0 0.0 0.0 0.00 0.00 0.00 91 1013.9
20260904100046 53 0 0.0 0.0 0.00 0.00 0.00 91 1014.0
20260904095524 53 0 0.0 0.0 0.00 0.00 0.00 90 1014.0
20260904095022 53 0 0.0 0.0 0.00 0.00 0.00 91 1014.0
20260904094549 53 0 0.0 0.0 0.00 0.00 0.00 91 1014.0
20260904094021 54 0 0.0 0.0 0.00 0.00 0.00 91 1013.9
20260904093521 54 0 0.0 0.0 0.00 0.00 0.00 91 1014.0
20260904093040 54 0 0.0 0.0 0.00 0.00 0.00 91 1014.0
20260904092520 54 0 0.0 0.0 0.00 0.00 0.00 91 1014.0
20260904092019 54 0 0.0 0.0 0.00 0.00 0.00 91 1014.0
20260904091540 53 0 0.0 0.0 0.00 0.00 0.00 91 1014.1
20260904091023 53 0 0.0 0.0 0.00 0.00 0.00 91 1014.1
20260904090522 53 0 0.0 0.0 0.00 0.00 0.00 91 1014.1
20260904090046 53 0 0.0 0.0 0.00 0.00 0.00 91 1014.2
20260904085521 53 0 0.0 0.0 0.00 0.00 0.00 90 1014.1
20260904085026 53 0 0.0 0.0 0.00 0.00 0.00 91 1014.2
20260904084543 53 0 0.0 0.0 0.00 0.00 0.00 91 1014.3
20260904084023 53 0 0.0 0.0 0.00 0.00 0.00 91 1014.2
20260904083520 53 0 0.0 0.0 0.00 0.00 0.00 91 1014.2
20260904083040 53 0 0.0 0.0 0.00 0.00 0.00 91 1014.2
20260904082524 54 0 0.0 0.0 0.00 0.00 0.00 91 1014.2
20260904082023 53 0 0.0 0.0 0.00 0.00 0.00 91 1014.2
20260904081606 53 0 0.0 0.0 0.00 0.00 0.00 91 1014.2
20260904081023 53 0 0.0 0.0 0.00 0.00 0.00 91 1014.2
20260904080521 53 0 0.0 0.0 0.00 0.00 0.00 92 1014.3
20260904080043 53 0 0.0 0.0 0.00 0.00 0.00 92 1014.3
20260904075520 53 0 0.0 0.0 0.00 0.00 0.00 91 1014.3
20260904075019 53 0 0.0 0.0 0.00 0.00 0.00 92 1014.3
20260904074601 53 0 0.0 0.0 0.00 0.00 0.00 92 1014.4
20260904074019 53 0 0.0 1.0 0.00 0.00 0.00 92 1014.4
20260904073520 53 0 0.0 1.0 0.00 0.00 0.00 92 1014.4
20260904073059 53 226 0.0 3.0 0.00 0.00 0.00 92 1014.4
20260904072523 53 226 0.0 3.0 0.00 0.00 0.00 92 1014.4
20260904072022 53 226 1.0 5.0 0.00 0.00 0.00 92 1014.4
20260904071547 53 234 1.0 5.0 0.00 0.00 0.00 91 1014.4
20260904071025 53 227 2.0 5.0 0.00 0.00 0.00 90 1014.4
20260904070526 54 225 2.0 4.0 0.00 0.00 0.00 89 1014.4
20260904070051 54 230 1.0 3.0 0.00 0.00 0.00 88 1014.3
20260904065519 54 0 0.0 0.0 0.00 0.00 0.00 87 1014.3
20260904065021 55 0 0.0 0.0 0.00 0.00 0.00 86 1014.2
20260904064542 54 0 0.0 0.0 0.00 0.00 0.00 85 1014.2
20260904064020 54 0 0.0 0.0 0.00 0.00 0.00 86 1014.0
20260904063519 54 0 0.0 0.0 0.00 0.00 0.00 86 1014.0
20260904063040 54 0 0.0 0.0 0.00 0.00 0.00 87 1014.0
20260904062523 54 0 0.0 0.0 0.00 0.00 0.00 88 1014.2
20260904062021 54 0 0.0 0.0 0.00 0.00 0.00 88 1014.1
20260904061542 54 0 0.0 0.0 0.00 0.00 0.00 88 1014.1
20260904061024 54 0 0.0 0.0 0.00 0.00 0.00 89 1014.2
20260904060521 54 0 0.0 0.0 0.00 0.00 0.00 89 1014.2
20260904060041 54 0 0.0 0.0 0.00 0.00 0.00 89 1014.2
20260904055519 54 0 0.0 0.0 0.00 0.00 0.00 88 1014.3
20260904055021 54 0 0.0 0.0 0.00 0.00 0.00 88 1014.4
20260904054540 55 0 0.0 0.0 0.00 0.00 0.00 88 1014.4
20260904054023 55 0 0.0 0.0 0.00 0.00 0.00 88 1014.5
20260904053522 55 0 0.0 0.0 0.00 0.00 0.00 87 1014.6
20260904053046 55 0 0.0 0.0 0.00 0.00 0.00 87 1014.6
20260904052523 55 0 0.0 0.0 0.00 0.00 0.00 87 1014.7
20260904052022 55 0 0.0 0.0 0.00 0.00 0.00 86 1014.7
20260904051542 55 0 0.0 0.0 0.00 0.00 0.00 86 1014.8
20260904051021 55 0 0.0 0.0 0.00 0.00 0.00 86 1014.8
20260904050522 55 0 0.0 0.0 0.00 0.00 0.00 86 1014.9
20260904050052 55 0 0.0 0.0 0.00 0.00 0.00 86 1014.9
20260904045524 55 0 0.0 0.0 0.00 0.00 0.00 86 1015.0
20260904045027 55 0 0.0 0.0 0.00 0.00 0.00 86 1014.9
20260904044549 55 0 0.0 0.0 0.00 0.00 0.00 86 1014.9
20260904044029 55 0 0.0 0.0 0.00 0.00 0.00 85 1015.0
20260904043525 55 0 0.0 0.0 0.00 0.00 0.00 85 1015.1
20260904043054 55 0 0.0 0.0 0.00 0.00 0.00 85 1015.1
20260904042528 55 0 0.0 0.0 0.00 0.00 0.00 85 1015.0
20260904042021 55 0 0.0 0.0 0.00 0.00 0.00 85 1015.0
20260904041547 55 0 0.0 2.0 0.00 0.00 0.00 84 1015.1
20260904041025 55 0 0.0 3.0 0.00 0.00 0.00 84 1014.9
20260904040520 55 217 0.0 3.0 0.00 0.00 0.00 84 1015.0
20260904040052 56 217 1.0 3.0 0.00 0.00 0.00 83 1015.0
20260904035523 56 211 0.0 2.0 0.00 0.00 0.00 82 1014.9
20260904035021 56 0 0.0 1.0 0.00 0.00 0.00 82 1014.8
20260904034550 56 0 0.0 1.0 0.00 0.00 0.00 82 1014.8
20260904034022 56 0 0.0 0.0 0.00 0.00 0.00 81 1014.8
20260904033524 56 0 0.0 0.0 0.00 0.00 0.00 81 1014.6
20260904033043 56 0 0.0 0.0 0.00 0.00 0.00 81 1014.6
20260904032523 56 0 0.0 0.0 0.00 0.00 0.00 81 1014.6
20260904032020 56 0 0.0 0.0 0.00 0.00 0.00 81 1014.6
20260904031544 56 0 0.0 0.0 0.00 0.00 0.00 81 1014.6
20260904031019 57 0 0.0 0.0 0.00 0.00 0.00 81 1014.6
20260904030525 56 0 0.0 2.0 0.00 0.00 0.00 81 1014.6
20260904030046 56 0 0.0 2.0 0.00 0.00 0.00 80 1014.6
20260904025523 57 211 1.0 2.0 0.00 0.00 0.00 80 1014.7
20260904025023 57 211 1.0 2.0 0.00 0.00 0.00 80 1014.7
20260904024547 57 211 0.0 2.0 0.00 0.00 0.00 79 1014.7
20260904024021 57 211 1.0 3.0 0.00 0.00 0.00 79 1014.7
20260904023520 57 0 0.0 3.0 0.00 0.00 0.00 79 1014.8
20260904023041 57 217 0.0 3.0 0.00 0.00 0.00 79 1014.8
20260904022520 57 217 1.0 4.0 0.00 0.00 0.00 79 1014.8
20260904022020 57 212 1.0 4.0 0.00 0.00 0.00 79 1014.8
20260904021542 57 211 1.0 6.0 0.00 0.00 0.00 78 1014.8
20260904021025 57 215 3.0 6.0 0.00 0.00 0.00 78 1014.8
20260904020524 57 202 3.0 7.0 0.00 0.00 0.00 77 1014.8
20260904020047 58 232 3.0 7.0 0.00 0.00 0.00 77 1014.9
20260904015521 58 225 3.0 7.0 0.00 0.00 0.00 76 1014.9
20260904015023 58 217 4.0 7.0 0.00 0.00 0.00 75 1014.9
20260904014609 59 227 3.0 6.0 0.00 0.00 0.00 72 1014.9
20260904014024 59 225 1.0 7.0 0.00 0.00 0.00 70 1014.9
20260904013519 59 222 3.0 7.0 0.00 0.00 0.00 69 1014.9
20260904013040 60 238 2.0 5.0 0.00 0.00 0.00 66 1014.9
20260904012521 61 240 1.0 6.0 0.00 0.00 0.00 59 1015.0
20260904012025 61 187 2.0 6.0 0.00 0.00 0.00 58 1015.1
20260904011547 61 208 3.0 7.0 0.00 0.00 0.00 56 1015.1
20260904011024 61 227 3.0 7.0 0.00 0.00 0.00 55 1015.1
20260904010523 62 271 3.0 7.0 0.00 0.00 0.00 53 1015.1
20260904010045 62 228 1.0 7.0 0.00 0.00 0.00 52 1015.1
20260904005519 63 196 3.0 10.0 0.00 0.00 0.00 51 1015.1
20260904005020 63 187 3.0 11.0 0.00 0.00 0.00 50 1015.0
20260904004547 64 205 3.0 11.0 0.00 0.00 0.00 49 1015.1
20260904004025 64 227 4.0 7.0 0.00 0.00 0.00 50 1015.1
20260904003523 65 245 2.0 9.0 0.00 0.00 0.00 49 1015.2
20260904003041 65 149 3.0 9.0 0.00 0.00 0.00 50 1015.2
20260904002520 65 188 3.0 10.0 0.00 0.00 0.00 49 1015.1
20260904002022 65 215 5.0 10.0 0.00 0.00 0.00 50 1015.1
20260904001540 65 208 4.0 9.0 0.00 0.00 0.00 51 1015.1
20260904001020 64 207 3.0 10.0 0.00 0.00 0.00 50 1015.1
20260904000520 65 219 5.0 10.0 0.00 0.00 0.00 50 1015.1
20260904000130 65 217 4.0 8.0 0.00 0.00 0.00 50 1015.1
20260903235525 65 227 3.0 8.0 0.00 0.00 0.00 52 1015.2
20260903235021 64 210 3.0 9.0 0.00 0.00 0.00 53 1015.4
20260903234542 64 222 3.0 9.0 0.00 0.00 0.00 54 1015.4
20260903234019 63 209 2.0 8.0 0.00 0.00 0.00 57 1015.3
20260903233520 63 229 3.0 8.0 0.00 0.00 0.00 56 1015.4
20260903233042 63 197 2.0 10.0 0.00 0.00 0.00 56 1015.4
20260903232525 63 214 3.0 10.0 0.00 0.00 0.00 56 1015.5
20260903232020 63 189 2.0 10.0 0.00 0.00 0.00 57 1015.6
20260903231540 63 225 4.0 10.0 0.00 0.00 0.00 56 1015.7
20260903231020 63 196 3.0 8.0 0.00 0.00 0.00 58 1015.7
20260903230526 63 198 4.0 9.0 0.00 0.00 0.00 58 1015.8
20260903230047 64 212 3.0 9.0 0.00 0.00 0.00 57 1015.8
20260903225523 64 205 4.0 11.0 0.00 0.00 0.00 56 1015.9
20260903225020 64 198 3.0 11.0 0.00 0.00 0.00 58 1016.1
20260903224547 64 242 6.0 11.0 0.00 0.00 0.00 58 1016.1
20260903224023 63 204 4.0 8.0 0.00 0.00 0.00 59 1016.1
20260903223524 64 216 5.0 9.0 0.00 0.00 0.00 59 1016.2
20260903223040 63 225 3.0 9.0 0.00 0.00 0.00 61 1016.2
20260903222522 63 205 4.0 12.0 0.00 0.00 0.00 60 1016.3
20260903222021 63 221 6.0 12.0 0.00 0.00 0.00 60 1016.3
20260903221550 63 226 5.0 13.0 0.00 0.00 0.00 60 1016.4
20260903221021 64 200 5.0 13.0 0.00 0.00 0.00 59 1016.5
20260903220524 63 215 4.0 12.0 0.00 0.00 0.00 59 1016.5
20260903220041 64 225 4.0 10.0 0.00 0.00 0.00 61 1016.3
20260903215521 64 200 5.0 11.0 0.00 0.00 0.00 59 1016.4
20260903215020 65 225 2.0 11.0 0.00 0.00 0.00 59 1016.4
20260903214549 64 235 5.0 11.0 0.00 0.00 0.00 59 1016.4
20260903214019 64 198 3.0 9.0 0.00 0.00 0.00 61 1016.4
20260903213529 64 224 5.0 13.0 0.00 0.00 0.00 61 1016.4
20260903213049 65 209 7.0 13.0 0.00 0.00 0.00 59 1016.3
20260903212521 66 201 2.0 9.0 0.00 0.00 0.00 58 1016.3
20260903212023 65 225 3.0 9.0 0.00 0.00 0.00 60 1016.3
20260903211544 65 213 5.0 9.0 0.00 0.00 0.00 58 1016.4
20260903211024 65 241 4.0 9.0 0.00 0.00 0.00 59 1016.3
20260903210524 66 229 3.0 12.0 0.00 0.00 0.00 58 1016.3
20260903210046 66 209 3.0 12.0 0.00 0.00 0.00 58 1016.3
20260903205522 66 197 4.0 10.0 0.00 0.00 0.00 57 1016.5
20260903205021 67 190 5.0 11.0 0.00 0.00 0.00 56 1016.4
20260903204545 66 271 6.0 11.0 0.00 0.00 0.00 54 1016.4
20260903204022 67 200 4.0 10.0 0.00 0.00 0.00 52 1016.4
20260903203525 66 241 3.0 11.0 0.00 0.00 0.00 54 1016.3
20260903203044 66 130 5.0 12.0 0.00 0.00 0.00 53 1016.3
20260903202521 66 223 5.0 12.0 0.00 0.00 0.00 56 1016.3
20260903202021 66 230 5.0 9.0 0.00 0.00 0.00 54 1016.3
20260903201542 66 205 3.0 9.0 0.00 0.00 0.00 51 1016.4
20260903201020 66 167 3.0 10.0 0.00 0.00 0.00 51 1016.3
20260903200523 66 207 4.0 10.0 0.00 0.00 0.00 52 1016.4
20260903200040 67 195 3.0 9.0 0.00 0.00 0.00 52 1016.5
20260903195524 67 225 4.0 10.0 0.00 0.00 0.00 53 1016.5
20260903195029 66 212 3.0 10.0 0.00 0.00 0.00 54 1016.6
20260903194550 66 221 3.0 11.0 0.00 0.00 0.00 55 1016.6
20260903194021 66 198 3.0 12.0 0.00 0.00 0.00 53 1016.6
20260903193521 66 206 4.0 12.0 0.00 0.00 0.00 53 1016.6
20260903193049 66 0 3.0 11.0 0.00 0.00 0.00 53 1016.7
20260903192521 66 211 5.0 12.0 0.00 0.00 0.00 53 1016.7
20260903192021 66 185 4.0 12.0 0.00 0.00 0.00 52 1016.7
20260903191545 66 164 4.0 10.0 0.00 0.00 0.00 52 1016.8
20260903191027 66 217 3.0 10.0 0.00 0.00 0.00 53 1016.8
20260903190520 65 236 3.0 10.0 0.00 0.00 0.00 54 1016.8
20260903190054 65 226 4.0 10.0 0.00 0.00 0.00 53 1017.1
20260903185522 65 182 3.0 10.0 0.00 0.00 0.00 53 1017.1
20260903185024 65 234 3.0 10.0 0.00 0.00 0.00 53 1017.2
20260903184543 65 205 5.0 10.0 0.00 0.00 0.00 53 1017.2
20260903184020 65 184 3.0 9.0 0.00 0.00 0.00 54 1017.2
20260903183526 65 178 4.0 9.0 0.00 0.00 0.00 54 1017.3
20260903183043 65 239 3.0 10.0 0.00 0.00 0.00 54 1017.2
20260903182520 65 275 2.0 10.0 0.00 0.00 0.00 54 1017.3
20260903182020 65 172 4.0 9.0 0.00 0.00 0.00 54 1017.3
20260903181546 64 216 3.0 11.0 0.00 0.00 0.00 55 1017.2
20260903181019 64 55 4.0 11.0 0.00 0.00 0.00 54 1017.3
20260903180523 64 206 4.0 12.0 0.00 0.00 0.00 55 1017.3
20260903180050 64 198 3.0 12.0 0.00 0.00 0.00 55 1017.4
20260903175521 64 225 4.0 12.0 0.00 0.00 0.00 55 1017.3
20260903175021 64 218 3.0 10.0 0.00 0.00 0.00 56 1017.4
20260903174542 63 177 3.0 10.0 0.00 0.00 0.00 56 1017.4
20260903174021 63 155 2.0 10.0 0.00 0.00 0.00 57 1017.4
20260903173518 63 74 3.0 9.0 0.00 0.00 0.00 57 1017.3
20260903173047 63 203 3.0 9.0 0.00 0.00 0.00 57 1017.3
20260903172520 63 28 4.0 9.0 0.00 0.00 0.00 57 1017.4
20260903172020 63 207 2.0 6.0 0.00 0.00 0.00 58 1017.6
20260903171548 63 152 2.0 6.0 0.00 0.00 0.00 57 1017.6
20260903171023 63 196 3.0 6.0 0.00 0.00 0.00 59 1017.6
20260903170523 62 21 2.0 5.0 0.00 0.00 0.00 60 1017.6
20260903170054 61 282 2.0 8.0 0.00 0.00 0.00 60 1017.6
20260903165521 61 186 1.0 9.0 0.00 0.00 0.00 59 1017.6
20260903165020 61 262 2.0 11.0 0.00 0.00 0.00 61 1017.6
20260903164542 61 171 4.0 11.0 0.00 0.00 0.00 61 1017.6
20260903164020 60 244 2.0 7.0 0.00 0.00 0.00 61 1017.6
20260903163526 60 24 0.0 5.0 0.00 0.00 0.00 63 1017.7
20260903163058 60 206 1.0 5.0 0.00 0.00 0.00 64 1017.6
20260903162523 60 0 1.0 8.0 0.00 0.00 0.00 65 1017.7
20260903162023 59 235 1.0 8.0 0.00 0.00 0.00 66 1017.8
20260903161548 59 19 1.0 7.0 0.00 0.00 0.00 64 1017.7
20260903161022 58 209 0.0 4.0 0.00 0.00 0.00 65 1017.9
20260903160525 58 192 1.0 4.0 0.00 0.00 0.00 65 1017.9
20260903160041 58 193 1.0 4.0 0.00 0.00 0.00 65 1017.9
20260903155521 58 0 1.0 4.0 0.00 0.00 0.00 66 1018.0
20260903155020 58 129 1.0 5.0 0.00 0.00 0.00 65 1017.9
20260903154541 57 197 1.0 5.0 0.00 0.00 0.00 66 1018.0
20260903154024 57 0 0.0 5.0 0.00 0.00 0.00 66 1018.0
20260903153525 57 0 1.0 5.0 0.00 0.00 0.00 67 1018.1
20260903153044 56 275 0.0 3.0 0.00 0.00 0.00 67 1018.0
20260903152523 56 25 0.0 3.0 0.00 0.00 0.00 68 1018.1
20260903152021 56 103 0.0 3.0 0.00 0.00 0.00 68 1018.0
20260903151540 56 0 0.0 3.0 0.00 0.00 0.00 68 1018.0
20260903151021 56 203 0.0 3.0 0.00 0.00 0.00 68 1017.9
20260903150518 56 0 1.0 2.0 0.00 0.00 0.00 68 1018.0
20260903150100 55 143 1.0 4.0 0.00 0.00 0.00 69 1017.9
20260903145521 55 0 0.0 4.0 0.00 0.00 0.00 68 1017.9
20260903145021 54 0 0.0 0.0 0.00 0.00 0.00 67 1018.0
20260903144540 53 0 0.0 0.0 0.00 0.00 0.00 67 1017.9